WXM80 ListenWXM80 Stop

You find our weather info also at:

UK Metoffice

WeatherCloud

Weather Underground

Northeastern Weather Network

AWEKAS

Citizen Weather Observer Program (CWOP)

HAMweather, WeatherForYou, PWS Weather


Weather Underground History page Text

Daily Summary for November 5, 2017 Units:  Both    English   Metric
« Previous Day
Next Day »
Daily Weekly Monthly Yearly Custom
  High: Low: Average:
Temperature: 60.4 °F /  15.8 °C 51.2 °F /  10.7 °C 56.6 °F /  13.7 °C
Dew Point: 59.5 °F /  15.3 °C 47.5 °F /  8.6 °C 54.2 °F /  12.3 °C
Humidity: 97 % 80 % 92 %
Wind Speed: 3.6 mph /  5.8 km/h - 0.7 mph /  1.1 km/h
Wind Gust: 9.2 mph /  14.8 km/h - -
Wind:- - ESE
Pressure: 30.36 in /  1028 hPa 29.79 in /  1008.7 hPa -
Precipitation: 0.03 in /  0.76 mm    
Historical Graphs
 
 
Tabular Data for November 5, 2017
Time Temperature Dew Point Pressure Wind Wind Speed Wind Gust Humidity Rainfall Rate (Hourly)
00:01 52.5 °F /  11.4 °C 47.5 °F /  8.6 °C 30.35 in /  1027.7 hPa East 1.5 mph /  2.4 km/h 2.3 mph /  3.7 km/h 83 % 0.00 in /  0 mm
00:06 52.6 °F /  11.4 °C 47.6 °F /  8.7 °C 30.34 in /  1027.3 hPa East 1.1 mph /  1.8 km/h 3.5 mph /  5.6 km/h 83 % 0.00 in /  0 mm
00:11 52.7 °F /  11.5 °C 47.7 °F /  8.7 °C 30.34 in /  1027.3 hPa East 1.6 mph /  2.6 km/h 3.5 mph /  5.6 km/h 83 % 0.00 in /  0 mm
00:16 52.9 °F /  11.6 °C 47.6 °F /  8.7 °C 30.35 in /  1027.7 hPa East 1.3 mph /  2.1 km/h 3.0 mph /  4.8 km/h 82 % 0.00 in /  0 mm
00:21 53.0 °F /  11.7 °C 47.7 °F /  8.7 °C 30.34 in /  1027.3 hPa East 3.6 mph /  5.8 km/h 4.6 mph /  7.4 km/h 82 % 0.00 in /  0 mm
00:26 53.1 °F /  11.7 °C 47.7 °F /  8.7 °C 30.34 in /  1027.3 hPa ESE 2.3 mph /  3.7 km/h 5.0 mph /  8 km/h 82 % 0.00 in /  0 mm
00:31 53.3 °F /  11.8 °C 47.9 °F /  8.8 °C 30.34 in /  1027.3 hPa East 1.8 mph /  2.9 km/h 3.0 mph /  4.8 km/h 82 % 0.00 in /  0 mm
00:36 53.3 °F /  11.8 °C 47.9 °F /  8.8 °C 30.35 in /  1027.7 hPa East 2.3 mph /  3.7 km/h 3.0 mph /  4.8 km/h 82 % 0.00 in /  0 mm
00:41 53.4 °F /  11.9 °C 47.7 °F /  8.7 °C 30.35 in /  1027.7 hPa East 1.2 mph /  1.9 km/h 2.3 mph /  3.7 km/h 81 % 0.00 in /  0 mm
00:46 53.5 °F /  11.9 °C 47.8 °F /  8.8 °C 30.34 in /  1027.3 hPa East 2.3 mph /  3.7 km/h 5.8 mph /  9.3 km/h 81 % 0.00 in /  0 mm
00:51 53.6 °F /  12 °C 47.9 °F /  8.8 °C 30.35 in /  1027.7 hPa East 1.9 mph /  3.1 km/h 6.0 mph /  9.7 km/h 81 % 0.00 in /  0 mm
00:56 53.6 °F /  12 °C 47.9 °F /  8.8 °C 30.35 in /  1027.7 hPa SE 2.0 mph /  3.2 km/h 3.5 mph /  5.6 km/h 81 % 0.00 in /  0 mm
01:02 53.7 °F /  12.1 °C 48.0 °F /  8.9 °C 30.35 in /  1027.7 hPa ESE 0.4 mph /  0.6 km/h 2.3 mph /  3.7 km/h 81 % 0.00 in /  0 mm
01:07 53.7 °F /  12.1 °C 48.0 °F /  8.9 °C 30.35 in /  1027.7 hPa East 1.0 mph /  1.6 km/h 3.5 mph /  5.6 km/h 81 % 0.00 in /  0 mm
01:12 53.7 °F /  12.1 °C 48.0 °F /  8.9 °C 30.36 in /  1028 hPa East 1.0 mph /  1.6 km/h 3.5 mph /  5.6 km/h 81 % 0.00 in /  0 mm
01:17 53.7 °F /  12.1 °C 48.0 °F /  8.9 °C 30.36 in /  1028 hPa East 0.1 mph /  0.2 km/h 2.3 mph /  3.7 km/h 81 % 0.00 in /  0 mm
01:22 53.7 °F /  12.1 °C 47.7 °F /  8.7 °C 30.35 in /  1027.7 hPa East 0.1 mph /  0.2 km/h 1.2 mph /  1.9 km/h 80 % 0.00 in /  0 mm
01:27 53.7 °F /  12.1 °C 47.7 °F /  8.7 °C 30.35 in /  1027.7 hPa East 1.7 mph /  2.7 km/h 3.5 mph /  5.6 km/h 80 % 0.00 in /  0 mm
01:32 53.7 °F /  12.1 °C 48.0 °F /  8.9 °C 30.36 in /  1028 hPa East 1.1 mph /  1.8 km/h 2.3 mph /  3.7 km/h 81 % 0.00 in /  0 mm
01:37 53.7 °F /  12.1 °C 47.7 °F /  8.7 °C 30.36 in /  1028 hPa East 1.4 mph /  2.3 km/h 2.3 mph /  3.7 km/h 80 % 0.00 in /  0 mm
01:42 53.7 °F /  12.1 °C 47.7 °F /  8.7 °C 30.36 in /  1028 hPa ESE 2.4 mph /  3.9 km/h 5.8 mph /  9.3 km/h 80 % 0.00 in /  0 mm
01:47 53.6 °F /  12 °C 47.6 °F /  8.7 °C 30.36 in /  1028 hPa SE 0.6 mph /  1 km/h 3.5 mph /  5.6 km/h 80 % 0.00 in /  0 mm
01:52 53.6 °F /  12 °C 47.6 °F /  8.7 °C 30.36 in /  1028 hPa Calm   1.2 mph /  1.9 km/h 80 % 0.00 in /  0 mm
01:57 53.5 °F /  11.9 °C 47.5 °F /  8.6 °C 30.36 in /  1028 hPa SE 0.2 mph /  0.3 km/h 2.3 mph /  3.7 km/h 80 % 0.00 in /  0 mm
01:02 53.5 °F /  11.9 °C 47.8 °F /  8.8 °C 30.35 in /  1027.7 hPa Calm     81 % 0.00 in /  0 mm
01:07 53.5 °F /  11.9 °C 48.5 °F /  9.2 °C 30.35 in /  1027.7 hPa East 0.5 mph /  0.8 km/h 1.2 mph /  1.9 km/h 83 % 0.00 in /  0 mm
01:12 53.3 °F /  11.8 °C 48.6 °F /  9.2 °C 30.33 in /  1027 hPa East 1.9 mph /  3.1 km/h 3.5 mph /  5.6 km/h 84 % 0.00 in /  0 mm
01:15 53.2 °F /  11.8 °C 48.8 °F /  9.3 °C 30.33 in /  1027 hPa ENE 2.5 mph /  4 km/h 4.6 mph /  7.4 km/h 85 % 0.00 in /  0 mm
01:20 52.9 °F /  11.6 °C 48.8 °F /  9.3 °C 30.33 in /  1027 hPa East 2.1 mph /  3.4 km/h 3.5 mph /  5.6 km/h 86 % 0.00 in /  0 mm
01:25 52.6 °F /  11.4 °C 48.8 °F /  9.3 °C 30.33 in /  1027 hPa East 2.4 mph /  3.9 km/h 4.6 mph /  7.4 km/h 87 % 0.00 in /  0 mm
01:30 52.4 °F /  11.3 °C 48.9 °F /  9.4 °C 30.33 in /  1027 hPa ESE 2.3 mph /  3.7 km/h 3.5 mph /  5.6 km/h 88 % 0.00 in /  0 mm
01:35 52.2 °F /  11.2 °C 48.8 °F /  9.3 °C 30.33 in /  1027 hPa ESE 1.8 mph /  2.9 km/h 4.6 mph /  7.4 km/h 88 % 0.00 in /  0 mm
01:40 52.1 °F /  11.2 °C 48.7 °F /  9.3 °C 30.33 in /  1027 hPa SE 1.5 mph /  2.4 km/h 5.0 mph /  8 km/h 88 % 0.00 in /  0 mm
01:45 52.0 °F /  11.1 °C 48.6 °F /  9.2 °C 30.32 in /  1026.6 hPa East 1.7 mph /  2.7 km/h 3.5 mph /  5.6 km/h 88 % 0.00 in /  0 mm
01:50 51.9 °F /  11.1 °C 48.8 °F /  9.3 °C 30.32 in /  1026.6 hPa East 1.2 mph /  1.9 km/h 3.5 mph /  5.6 km/h 89 % 0.00 in /  0 mm
01:55 51.9 °F /  11.1 °C 48.8 °F /  9.3 °C 30.31 in /  1026.3 hPa East 1.8 mph /  2.9 km/h 3.5 mph /  5.6 km/h 89 % 0.00 in /  0 mm
02:01 51.8 °F /  11 °C 48.7 °F /  9.3 °C 30.32 in /  1026.6 hPa East 1.2 mph /  1.9 km/h 3.5 mph /  5.6 km/h 89 % 0.00 in /  0 mm
02:06 51.8 °F /  11 °C 48.7 °F /  9.3 °C 30.32 in /  1026.6 hPa East 1.0 mph /  1.6 km/h 8.0 mph /  12.9 km/h 89 % 0.00 in /  0 mm
02:11 51.7 °F /  10.9 °C 48.9 °F /  9.4 °C 30.31 in /  1026.3 hPa East 3.0 mph /  4.8 km/h 6.0 mph /  9.7 km/h 90 % 0.00 in /  0 mm
02:16 51.7 °F /  10.9 °C 48.9 °F /  9.4 °C 30.30 in /  1026 hPa East 2.0 mph /  3.2 km/h 3.0 mph /  4.8 km/h 90 % 0.00 in /  0 mm
02:21 51.7 °F /  10.9 °C 48.9 °F /  9.4 °C 30.29 in /  1025.6 hPa ESE 3.6 mph /  5.8 km/h 5.8 mph /  9.3 km/h 90 % 0.00 in /  0 mm
02:26 51.7 °F /  10.9 °C 48.9 °F /  9.4 °C 30.29 in /  1025.6 hPa East 3.0 mph /  4.8 km/h 7.0 mph /  11.3 km/h 90 % 0.00 in /  0 mm
02:31 51.7 °F /  10.9 °C 48.9 °F /  9.4 °C 30.28 in /  1025.3 hPa ESE 2.9 mph /  4.7 km/h 5.8 mph /  9.3 km/h 90 % 0.00 in /  0 mm
02:36 51.7 °F /  10.9 °C 48.9 °F /  9.4 °C 30.28 in /  1025.3 hPa East 2.0 mph /  3.2 km/h 7.0 mph /  11.3 km/h 90 % 0.00 in /  0 mm
02:41 51.7 °F /  10.9 °C 48.9 °F /  9.4 °C 30.29 in /  1025.6 hPa East 1.0 mph /  1.6 km/h 4.0 mph /  6.4 km/h 90 % 0.00 in /  0 mm
02:46 51.7 °F /  10.9 °C 48.9 °F /  9.4 °C 30.29 in /  1025.6 hPa East 1.0 mph /  1.6 km/h 3.0 mph /  4.8 km/h 90 % 0.00 in /  0 mm
02:51 51.7 °F /  10.9 °C 48.9 °F /  9.4 °C 30.29 in /  1025.6 hPa ESE 1.0 mph /  1.6 km/h 6.0 mph /  9.7 km/h 90 % 0.00 in /  0 mm
02:56 51.7 °F /  10.9 °C 48.9 °F /  9.4 °C 30.29 in /  1025.6 hPa ESE 1.0 mph /  1.6 km/h 4.0 mph /  6.4 km/h 90 % 0.00 in /  0 mm
03:01 51.6 °F /  10.9 °C 48.8 °F /  9.3 °C 30.30 in /  1026 hPa ESE 2.9 mph /  4.7 km/h 4.6 mph /  7.4 km/h 90 % 0.00 in /  0 mm
03:06 51.6 °F /  10.9 °C 48.8 °F /  9.3 °C 30.30 in /  1026 hPa SE 1.0 mph /  1.6 km/h 3.5 mph /  5.6 km/h 90 % 0.00 in /  0 mm
03:11 51.6 °F /  10.9 °C 48.8 °F /  9.3 °C 30.30 in /  1026 hPa Calm   1.0 mph /  1.6 km/h 90 % 0.00 in /  0 mm
03:16 51.5 °F /  10.8 °C 48.7 °F /  9.3 °C 30.30 in /  1026 hPa SE 0.1 mph /  0.2 km/h 1.2 mph /  1.9 km/h 90 % 0.00 in /  0 mm
03:21 51.4 °F /  10.8 °C 48.6 °F /  9.2 °C 30.30 in /  1026 hPa Calm   1.0 mph /  1.6 km/h 90 % 0.00 in /  0 mm
03:26 51.3 °F /  10.7 °C 48.5 °F /  9.2 °C 30.30 in /  1026 hPa ESE 1.0 mph /  1.6 km/h 3.0 mph /  4.8 km/h 90 % 0.00 in /  0 mm
03:31 51.3 °F /  10.7 °C 48.5 °F /  9.2 °C 30.29 in /  1025.6 hPa East 1.0 mph /  1.6 km/h 2.0 mph /  3.2 km/h 90 % 0.00 in /  0 mm
03:36 51.2 °F /  10.7 °C 48.4 °F /  9.1 °C 30.29 in /  1025.6 hPa East 1.0 mph /  1.6 km/h 2.0 mph /  3.2 km/h 90 % 0.00 in /  0 mm
03:41 51.2 °F /  10.7 °C 48.4 °F /  9.1 °C 30.30 in /  1026 hPa Calm   2.0 mph /  3.2 km/h 90 % 0.00 in /  0 mm
03:46 51.2 °F /  10.7 °C 48.4 °F /  9.1 °C 30.30 in /  1026 hPa Calm   2.0 mph /  3.2 km/h 90 % 0.00 in /  0 mm
03:51 51.2 °F /  10.7 °C 48.4 °F /  9.1 °C 30.30 in /  1026 hPa ESE 1.0 mph /  1.6 km/h 2.0 mph /  3.2 km/h 90 % 0.00 in /  0 mm
03:56 51.2 °F /  10.7 °C 48.4 °F /  9.1 °C 30.30 in /  1026 hPa Calm   1.0 mph /  1.6 km/h 90 % 0.00 in /  0 mm
04:01 51.3 °F /  10.7 °C 48.5 °F /  9.2 °C 30.30 in /  1026 hPa ESE 0.4 mph /  0.6 km/h 1.2 mph /  1.9 km/h 90 % 0.00 in /  0 mm
04:06 51.3 °F /  10.7 °C 48.5 °F /  9.2 °C 30.30 in /  1026 hPa ESE 0.6 mph /  1 km/h 2.3 mph /  3.7 km/h 90 % 0.00 in /  0 mm
04:11 51.4 °F /  10.8 °C 48.6 °F /  9.2 °C 30.30 in /  1026 hPa East 1.7 mph /  2.7 km/h 3.5 mph /  5.6 km/h 90 % 0.00 in /  0 mm
04:16 51.5 °F /  10.8 °C 48.7 °F /  9.3 °C 30.29 in /  1025.6 hPa ENE 1.3 mph /  2.1 km/h 2.3 mph /  3.7 km/h 90 % 0.00 in /  0 mm
04:21 51.6 °F /  10.9 °C 49.1 °F /  9.5 °C 30.29 in /  1025.6 hPa ENE 2.0 mph /  3.2 km/h 3.5 mph /  5.6 km/h 91 % 0.00 in /  0 mm
04:26 51.7 °F /  10.9 °C 49.2 °F /  9.6 °C 30.29 in /  1025.6 hPa ENE 2.3 mph /  3.7 km/h 4.6 mph /  7.4 km/h 91 % 0.00 in /  0 mm
04:31 51.8 °F /  11 °C 49.0 °F /  9.4 °C 30.29 in /  1025.6 hPa ESE 2.8 mph /  4.5 km/h 4.6 mph /  7.4 km/h 90 % 0.00 in /  0 mm
04:36 52.0 °F /  11.1 °C 49.2 °F /  9.6 °C 30.29 in /  1025.6 hPa ENE 1.7 mph /  2.7 km/h 3.5 mph /  5.6 km/h 90 % 0.00 in /  0 mm
04:41 52.0 °F /  11.1 °C 49.2 °F /  9.6 °C 30.29 in /  1025.6 hPa East 1.8 mph /  2.9 km/h 3.5 mph /  5.6 km/h 90 % 0.00 in /  0 mm
04:46 52.1 °F /  11.2 °C 49.3 °F /  9.6 °C 30.29 in /  1025.6 hPa East 1.5 mph /  2.4 km/h 2.3 mph /  3.7 km/h 90 % 0.00 in /  0 mm
04:51 52.2 °F /  11.2 °C 49.4 °F /  9.7 °C 30.29 in /  1025.6 hPa East 1.3 mph /  2.1 km/h 2.3 mph /  3.7 km/h 90 % 0.00 in /  0 mm
04:56 52.3 °F /  11.3 °C 49.5 °F /  9.7 °C 30.30 in /  1026 hPa East 1.3 mph /  2.1 km/h 3.0 mph /  4.8 km/h 90 % 0.00 in /  0 mm
05:01 52.4 °F /  11.3 °C 49.6 °F /  9.8 °C 30.30 in /  1026 hPa ESE 0.4 mph /  0.6 km/h 2.3 mph /  3.7 km/h 90 % 0.00 in /  0 mm
05:06 52.4 °F /  11.3 °C 49.6 °F /  9.8 °C 30.30 in /  1026 hPa Calm   2.3 mph /  3.7 km/h 90 % 0.00 in /  0 mm
05:11 52.5 °F /  11.4 °C 49.7 °F /  9.8 °C 30.30 in /  1026 hPa SSE 0.9 mph /  1.4 km/h 3.0 mph /  4.8 km/h 90 % 0.00 in /  0 mm
05:13 52.5 °F /  11.4 °C 49.7 °F /  9.8 °C 30.30 in /  1026 hPa ESE 0.4 mph /  0.6 km/h 1.2 mph /  1.9 km/h 90 % 0.00 in /  0 mm
05:18 52.6 °F /  11.4 °C 49.8 °F /  9.9 °C 30.31 in /  1026.3 hPa ESE 1.5 mph /  2.4 km/h 3.5 mph /  5.6 km/h 90 % 0.00 in /  0 mm
05:23 52.7 °F /  11.5 °C 49.5 °F /  9.7 °C 30.31 in /  1026.3 hPa Calm   1.2 mph /  1.9 km/h 89 % 0.00 in /  0 mm
05:28 52.8 °F /  11.6 °C 49.6 °F /  9.8 °C 30.31 in /  1026.3 hPa ENE 0.9 mph /  1.4 km/h 2.3 mph /  3.7 km/h 89 % 0.00 in /  0 mm
05:33 52.8 °F /  11.6 °C 49.9 °F /  9.9 °C 30.31 in /  1026.3 hPa East 0.3 mph /  0.5 km/h 2.3 mph /  3.7 km/h 90 % 0.00 in /  0 mm
05:38 52.9 °F /  11.6 °C 50.0 °F /  10 °C 30.31 in /  1026.3 hPa East 0.6 mph /  1 km/h 2.0 mph /  3.2 km/h 90 % 0.00 in /  0 mm
05:43 52.9 °F /  11.6 °C 49.7 °F /  9.8 °C 30.31 in /  1026.3 hPa ESE 0.9 mph /  1.4 km/h 2.3 mph /  3.7 km/h 89 % 0.00 in /  0 mm
05:48 53.0 °F /  11.7 °C 49.8 °F /  9.9 °C 30.31 in /  1026.3 hPa Calm     89 % 0.00 in /  0 mm
05:58 53.0 °F /  11.7 °C 49.8 °F /  9.9 °C 30.31 in /  1026.3 hPa ESE 0.2 mph /  0.3 km/h 2.3 mph /  3.7 km/h 89 % 0.00 in /  0 mm
06:03 53.0 °F /  11.7 °C 49.8 °F /  9.9 °C 30.31 in /  1026.3 hPa ESE 0.5 mph /  0.8 km/h 2.3 mph /  3.7 km/h 89 % 0.00 in /  0 mm
06:08 53.1 °F /  11.7 °C 49.9 °F /  9.9 °C 30.31 in /  1026.3 hPa ESE 0.2 mph /  0.3 km/h 2.3 mph /  3.7 km/h 89 % 0.00 in /  0 mm
06:13 53.1 °F /  11.7 °C 49.9 °F /  9.9 °C 30.31 in /  1026.3 hPa ESE 0.4 mph /  0.6 km/h 2.0 mph /  3.2 km/h 89 % 0.00 in /  0 mm
06:18 53.1 °F /  11.7 °C 49.9 °F /  9.9 °C 30.31 in /  1026.3 hPa ESE 1.2 mph /  1.9 km/h 2.3 mph /  3.7 km/h 89 % 0.00 in /  0 mm
06:23 53.1 °F /  11.7 °C 49.9 °F /  9.9 °C 30.31 in /  1026.3 hPa ESE 1.0 mph /  1.6 km/h 2.0 mph /  3.2 km/h 89 % 0.00 in /  0 mm
06:28 53.2 °F /  11.8 °C 50.0 °F /  10 °C 30.31 in /  1026.3 hPa ESE 0.5 mph /  0.8 km/h 2.3 mph /  3.7 km/h 89 % 0.00 in /  0 mm
06:33 53.2 °F /  11.8 °C 50.0 °F /  10 °C 30.30 in /  1026 hPa ESE 1.5 mph /  2.4 km/h 3.5 mph /  5.6 km/h 89 % 0.00 in /  0 mm
06:38 53.2 °F /  11.8 °C 50.0 °F /  10 °C 30.30 in /  1026 hPa ESE 0.9 mph /  1.4 km/h 2.3 mph /  3.7 km/h 89 % 0.00 in /  0 mm
06:43 53.2 °F /  11.8 °C 50.0 °F /  10 °C 30.30 in /  1026 hPa ESE 1.5 mph /  2.4 km/h 3.5 mph /  5.6 km/h 89 % 0.00 in /  0 mm
06:48 53.3 °F /  11.8 °C 50.1 °F /  10.1 °C 30.30 in /  1026 hPa ESE 0.8 mph /  1.3 km/h 2.3 mph /  3.7 km/h 89 % 0.00 in /  0 mm
06:53 53.3 °F /  11.8 °C 50.1 °F /  10.1 °C 30.30 in /  1026 hPa ESE 0.7 mph /  1.1 km/h 2.3 mph /  3.7 km/h 89 % 0.00 in /  0 mm
06:58 53.4 °F /  11.9 °C 50.2 °F /  10.1 °C 30.30 in /  1026 hPa ESE 1.0 mph /  1.6 km/h 2.3 mph /  3.7 km/h 89 % 0.00 in /  0 mm
07:03 53.4 °F /  11.9 °C 50.2 °F /  10.1 °C 30.30 in /  1026 hPa ESE 1.2 mph /  1.9 km/h 2.3 mph /  3.7 km/h 89 % 0.00 in /  0 mm
07:08 53.5 °F /  11.9 °C 50.3 °F /  10.2 °C 30.30 in /  1026 hPa ESE 1.3 mph /  2.1 km/h 2.3 mph /  3.7 km/h 89 % 0.00 in /  0 mm
07:13 53.6 °F /  12 °C 50.4 °F /  10.2 °C 30.29 in /  1025.6 hPa ESE 0.8 mph /  1.3 km/h 1.2 mph /  1.9 km/h 89 % 0.00 in /  0 mm
07:18 53.6 °F /  12 °C 50.4 °F /  10.2 °C 30.29 in /  1025.6 hPa ESE 0.5 mph /  0.8 km/h 1.2 mph /  1.9 km/h 89 % 0.00 in /  0 mm
07:23 53.7 °F /  12.1 °C 50.2 °F /  10.1 °C 30.30 in /  1026 hPa ESE 1.5 mph /  2.4 km/h 3.5 mph /  5.6 km/h 88 % 0.00 in /  0 mm
07:28 53.9 °F /  12.2 °C 50.4 °F /  10.2 °C 30.29 in /  1025.6 hPa East 0.2 mph /  0.3 km/h 1.2 mph /  1.9 km/h 88 % 0.00 in /  0 mm
07:33 54.0 °F /  12.2 °C 50.5 °F /  10.3 °C 30.29 in /  1025.6 hPa East 0.5 mph /  0.8 km/h 2.3 mph /  3.7 km/h 88 % 0.00 in /  0 mm
07:39 54.0 °F /  12.2 °C 50.5 °F /  10.3 °C 30.29 in /  1025.6 hPa East 0.5 mph /  0.8 km/h 2.3 mph /  3.7 km/h 88 % 0.00 in /  0 mm
07:44 54.2 °F /  12.3 °C 50.7 °F /  10.4 °C 30.29 in /  1025.6 hPa East 1.5 mph /  2.4 km/h 3.5 mph /  5.6 km/h 88 % 0.00 in /  0 mm
07:49 54.2 °F /  12.3 °C 50.7 °F /  10.4 °C 30.30 in /  1026 hPa ESE 1.0 mph /  1.6 km/h 3.5 mph /  5.6 km/h 88 % 0.00 in /  0 mm
07:54 54.4 °F /  12.4 °C 50.9 °F /  10.5 °C 30.29 in /  1025.6 hPa ESE 0.6 mph /  1 km/h 2.3 mph /  3.7 km/h 88 % 0.00 in /  0 mm
07:59 54.5 °F /  12.5 °C 51.0 °F /  10.6 °C 30.29 in /  1025.6 hPa Calm     88 % 0.00 in /  0 mm
08:04 54.6 °F /  12.6 °C 51.1 °F /  10.6 °C 30.29 in /  1025.6 hPa East 0.1 mph /  0.2 km/h 1.2 mph /  1.9 km/h 88 % 0.00 in /  0 mm
08:09 54.7 °F /  12.6 °C 51.2 °F /  10.7 °C 30.29 in /  1025.6 hPa East 1.1 mph /  1.8 km/h 2.3 mph /  3.7 km/h 88 % 0.00 in /  0 mm
08:14 54.8 °F /  12.7 °C 51.3 °F /  10.7 °C 30.29 in /  1025.6 hPa East 0.7 mph /  1.1 km/h 2.3 mph /  3.7 km/h 88 % 0.00 in /  0 mm
08:19 54.9 °F /  12.7 °C 51.4 °F /  10.8 °C 30.29 in /  1025.6 hPa East 1.4 mph /  2.3 km/h 3.0 mph /  4.8 km/h 88 % 0.00 in /  0 mm
08:24 54.9 °F /  12.7 °C 51.4 °F /  10.8 °C 30.29 in /  1025.6 hPa East 0.6 mph /  1 km/h 2.3 mph /  3.7 km/h 88 % 0.00 in /  0 mm
08:29 55.0 °F /  12.8 °C 51.5 °F /  10.8 °C 30.29 in /  1025.6 hPa East 0.5 mph /  0.8 km/h 2.3 mph /  3.7 km/h 88 % 0.00 in /  0 mm
08:34 55.0 °F /  12.8 °C 51.5 °F /  10.8 °C 30.29 in /  1025.6 hPa East 0.8 mph /  1.3 km/h 2.0 mph /  3.2 km/h 88 % 0.00 in /  0 mm
08:39 55.1 °F /  12.8 °C 51.6 °F /  10.9 °C 30.29 in /  1025.6 hPa SE 1.1 mph /  1.8 km/h 3.5 mph /  5.6 km/h 88 % 0.00 in /  0 mm
08:44 55.1 °F /  12.8 °C 51.6 °F /  10.9 °C 30.29 in /  1025.6 hPa East 1.2 mph /  1.9 km/h 3.5 mph /  5.6 km/h 88 % 0.00 in /  0 mm
08:49 55.1 °F /  12.8 °C 51.6 °F /  10.9 °C 30.29 in /  1025.6 hPa East 0.5 mph /  0.8 km/h 2.3 mph /  3.7 km/h 88 % 0.00 in /  0 mm
08:54 55.2 °F /  12.9 °C 51.7 °F /  10.9 °C 30.29 in /  1025.6 hPa ESE 0.6 mph /  1 km/h 3.0 mph /  4.8 km/h 88 % 0.00 in /  0 mm
08:59 55.2 °F /  12.9 °C 51.7 °F /  10.9 °C 30.28 in /  1025.3 hPa ESE 0.2 mph /  0.3 km/h 1.2 mph /  1.9 km/h 88 % 0.00 in /  0 mm
09:04 55.3 °F /  12.9 °C 51.8 °F /  11 °C 30.29 in /  1025.6 hPa East 1.3 mph /  2.1 km/h 2.3 mph /  3.7 km/h 88 % 0.00 in /  0 mm
09:09 55.3 °F /  12.9 °C 51.8 °F /  11 °C 30.28 in /  1025.3 hPa East 0.5 mph /  0.8 km/h 2.3 mph /  3.7 km/h 88 % 0.00 in /  0 mm
09:14 55.3 °F /  12.9 °C 52.1 °F /  11.2 °C 30.28 in /  1025.3 hPa SE 0.5 mph /  0.8 km/h 1.2 mph /  1.9 km/h 89 % 0.00 in /  0 mm
09:19 55.4 °F /  13 °C 52.2 °F /  11.2 °C 30.28 in /  1025.3 hPa SE 0.4 mph /  0.6 km/h 1.2 mph /  1.9 km/h 89 % 0.00 in /  0 mm
09:24 55.4 °F /  13 °C 52.2 °F /  11.2 °C 30.28 in /  1025.3 hPa ESE 0.8 mph /  1.3 km/h 3.5 mph /  5.6 km/h 89 % 0.00 in /  0 mm
09:29 55.5 °F /  13.1 °C 52.3 °F /  11.3 °C 30.28 in /  1025.3 hPa Calm   2.3 mph /  3.7 km/h 89 % 0.00 in /  0 mm
09:34 55.5 °F /  13.1 °C 52.3 °F /  11.3 °C 30.27 in /  1024.9 hPa East 1.1 mph /  1.8 km/h 2.3 mph /  3.7 km/h 89 % 0.00 in /  0 mm
09:39 55.5 °F /  13.1 °C 52.3 °F /  11.3 °C 30.27 in /  1024.9 hPa East 0.6 mph /  1 km/h 2.3 mph /  3.7 km/h 89 % 0.00 in /  0 mm
09:44 55.6 °F /  13.1 °C 52.7 °F /  11.5 °C 30.27 in /  1024.9 hPa Calm   1.2 mph /  1.9 km/h 90 % 0.00 in /  0 mm
09:50 55.7 °F /  13.2 °C 52.8 °F /  11.6 °C 30.28 in /  1025.3 hPa ENE 0.5 mph /  0.8 km/h 3.5 mph /  5.6 km/h 90 % 0.00 in /  0 mm
09:55 55.8 °F /  13.2 °C 52.6 °F /  11.4 °C 30.28 in /  1025.3 hPa ESE 1.4 mph /  2.3 km/h 2.3 mph /  3.7 km/h 89 % 0.00 in /  0 mm
10:00 55.9 °F /  13.3 °C 53.0 °F /  11.7 °C 30.27 in /  1024.9 hPa SE 0.3 mph /  0.5 km/h 1.2 mph /  1.9 km/h 90 % 0.00 in /  0 mm
10:05 56.1 °F /  13.4 °C 53.2 °F /  11.8 °C 30.27 in /  1024.9 hPa East 0.7 mph /  1.1 km/h 2.3 mph /  3.7 km/h 90 % 0.00 in /  0 mm
10:10 56.4 °F /  13.6 °C 53.8 °F /  12.1 °C 30.27 in /  1024.9 hPa SE 0.5 mph /  0.8 km/h 3.0 mph /  4.8 km/h 91 % 0.00 in /  0 mm
10:15 56.5 °F /  13.6 °C 53.6 °F /  12 °C 30.27 in /  1024.9 hPa Calm   1.2 mph /  1.9 km/h 90 % 0.00 in /  0 mm
10:20 56.7 °F /  13.7 °C 53.8 °F /  12.1 °C 30.27 in /  1024.9 hPa East 0.5 mph /  0.8 km/h 3.5 mph /  5.6 km/h 90 % 0.00 in /  0 mm
10:25 56.8 °F /  13.8 °C 53.9 °F /  12.2 °C 30.27 in /  1024.9 hPa East 0.3 mph /  0.5 km/h 1.2 mph /  1.9 km/h 90 % 0.00 in /  0 mm
10:30 56.8 °F /  13.8 °C 53.9 °F /  12.2 °C 30.26 in /  1024.6 hPa East 0.2 mph /  0.3 km/h 1.2 mph /  1.9 km/h 90 % 0.00 in /  0 mm
10:35 56.9 °F /  13.8 °C 54.0 °F /  12.2 °C 30.26 in /  1024.6 hPa SE 0.3 mph /  0.5 km/h 2.3 mph /  3.7 km/h 90 % 0.00 in /  0 mm
10:45 56.9 °F /  13.8 °C 54.0 °F /  12.2 °C 30.26 in /  1024.6 hPa SE 0.1 mph /  0.2 km/h 1.0 mph /  1.6 km/h 90 % 0.00 in /  0 mm
10:50 57.0 °F /  13.9 °C 54.1 °F /  12.3 °C 30.26 in /  1024.6 hPa ESE 0.5 mph /  0.8 km/h 3.0 mph /  4.8 km/h 90 % 0.00 in /  0 mm
10:55 57.0 °F /  13.9 °C 54.4 °F /  12.4 °C 30.26 in /  1024.6 hPa Calm   1.2 mph /  1.9 km/h 91 % 0.00 in /  0 mm
11:00 57.0 °F /  13.9 °C 54.1 °F /  12.3 °C 30.25 in /  1024.3 hPa Calm     90 % 0.00 in /  0 mm
11:05 57.1 °F /  13.9 °C 54.5 °F /  12.5 °C 30.25 in /  1024.3 hPa ENE 0.2 mph /  0.3 km/h 1.2 mph /  1.9 km/h 91 % 0.00 in /  0 mm
11:10 57.1 °F /  13.9 °C 54.5 °F /  12.5 °C 30.25 in /  1024.3 hPa SSE 1.0 mph /  1.6 km/h 2.3 mph /  3.7 km/h 91 % 0.00 in /  0 mm
11:15 57.2 °F /  14 °C 54.6 °F /  12.6 °C 30.24 in /  1023.9 hPa Calm     91 % 0.00 in /  0 mm
11:20 57.2 °F /  14 °C 54.6 °F /  12.6 °C 30.24 in /  1023.9 hPa Calm     91 % 0.00 in /  0 mm
11:25 57.2 °F /  14 °C 54.6 °F /  12.6 °C 30.23 in /  1023.6 hPa Calm     91 % 0.00 in /  0 mm
11:30 57.3 °F /  14.1 °C 54.7 °F /  12.6 °C 30.23 in /  1023.6 hPa Calm     91 % 0.00 in /  0 mm
11:35 57.5 °F /  14.2 °C 55.2 °F /  12.9 °C 30.23 in /  1023.6 hPa SE 0.3 mph /  0.5 km/h 1.2 mph /  1.9 km/h 92 % 0.00 in /  0 mm
11:40 57.6 °F /  14.2 °C 55.3 °F /  12.9 °C 30.23 in /  1023.6 hPa SE 0.1 mph /  0.2 km/h   92 % 0.00 in /  0 mm
11:45 57.7 °F /  14.3 °C 55.4 °F /  13 °C 30.22 in /  1023.2 hPa Calm     92 % 0.00 in /  0 mm
11:50 57.8 °F /  14.3 °C 55.5 °F /  13.1 °C 30.22 in /  1023.2 hPa SE 0.2 mph /  0.3 km/h 1.2 mph /  1.9 km/h 92 % 0.00 in /  0 mm
11:55 58.0 °F /  14.4 °C 55.7 °F /  13.2 °C 30.22 in /  1023.2 hPa SE 0.1 mph /  0.2 km/h 1.2 mph /  1.9 km/h 92 % 0.00 in /  0 mm
12:01 58.1 °F /  14.5 °C 55.8 °F /  13.2 °C 30.21 in /  1022.9 hPa SE 0.2 mph /  0.3 km/h 2.3 mph /  3.7 km/h 92 % 0.00 in /  0 mm
12:06 58.2 °F /  14.6 °C 55.9 °F /  13.3 °C 30.21 in /  1022.9 hPa SE 0.1 mph /  0.2 km/h 1.2 mph /  1.9 km/h 92 % 0.00 in /  0 mm
12:11 58.3 °F /  14.6 °C 56.3 °F /  13.5 °C 30.21 in /  1022.9 hPa SE 1.2 mph /  1.9 km/h 4.6 mph /  7.4 km/h 93 % 0.00 in /  0 mm
12:16 58.4 °F /  14.7 °C 56.4 °F /  13.6 °C 30.21 in /  1022.9 hPa SE 0.4 mph /  0.6 km/h 1.2 mph /  1.9 km/h 93 % 0.00 in /  0 mm
12:21 58.4 °F /  14.7 °C 56.4 °F /  13.6 °C 30.21 in /  1022.9 hPa SE 0.1 mph /  0.2 km/h 1.2 mph /  1.9 km/h 93 % 0.00 in /  0 mm
12:26 58.5 °F /  14.7 °C 56.5 °F /  13.6 °C 30.21 in /  1022.9 hPa SE 0.4 mph /  0.6 km/h 2.3 mph /  3.7 km/h 93 % 0.00 in /  0 mm
12:31 58.5 °F /  14.7 °C 56.5 °F /  13.6 °C 30.21 in /  1022.9 hPa SE 0.2 mph /  0.3 km/h 1.2 mph /  1.9 km/h 93 % 0.00 in /  0 mm
12:36 58.6 °F /  14.8 °C 56.6 °F /  13.7 °C 30.20 in /  1022.6 hPa SE 0.4 mph /  0.6 km/h 2.3 mph /  3.7 km/h 93 % 0.00 in /  0 mm
12:41 58.7 °F /  14.8 °C 56.7 °F /  13.7 °C 30.20 in /  1022.6 hPa SE 0.2 mph /  0.3 km/h 1.2 mph /  1.9 km/h 93 % 0.00 in /  0 mm
12:46 58.7 °F /  14.8 °C 56.7 °F /  13.7 °C 30.20 in /  1022.6 hPa SSE 0.2 mph /  0.3 km/h 1.2 mph /  1.9 km/h 93 % 0.00 in /  0 mm
12:51 58.7 °F /  14.8 °C 56.7 °F /  13.7 °C 30.19 in /  1022.2 hPa Calm   1.0 mph /  1.6 km/h 93 % 0.00 in /  0 mm
12:56 58.8 °F /  14.9 °C 56.8 °F /  13.8 °C 30.19 in /  1022.2 hPa Calm   1.2 mph /  1.9 km/h 93 % 0.00 in /  0 mm
13:01 58.8 °F /  14.9 °C 56.8 °F /  13.8 °C 30.19 in /  1022.2 hPa Calm   1.2 mph /  1.9 km/h 93 % 0.00 in /  0 mm
13:06 58.9 °F /  14.9 °C 56.9 °F /  13.8 °C 30.19 in /  1022.2 hPa SSE 0.1 mph /  0.2 km/h 1.2 mph /  1.9 km/h 93 % 0.00 in /  0 mm
13:11 58.9 °F /  14.9 °C 56.9 °F /  13.8 °C 30.19 in /  1022.2 hPa Calm     93 % 0.00 in /  0 mm
13:16 58.9 °F /  14.9 °C 56.9 °F /  13.8 °C 30.19 in /  1022.2 hPa Calm     93 % 0.00 in /  0 mm
13:21 58.9 °F /  14.9 °C 56.9 °F /  13.8 °C 30.19 in /  1022.2 hPa Calm     93 % 0.00 in /  0 mm
13:26 58.9 °F /  14.9 °C 56.9 °F /  13.8 °C 30.18 in /  1021.9 hPa Calm     93 % 0.00 in /  0 mm
13:31 59.0 °F /  15 °C 57.3 °F /  14.1 °C 30.18 in /  1021.9 hPa Calm     94 % 0.00 in /  0 mm
13:36 59.0 °F /  15 °C 57.3 °F /  14.1 °C 30.18 in /  1021.9 hPa Calm   1.2 mph /  1.9 km/h 94 % 0.00 in /  0 mm
13:41 59.0 °F /  15 °C 57.3 °F /  14.1 °C 30.18 in /  1021.9 hPa Calm     94 % 0.00 in /  0 mm
13:46 59.1 °F /  15.1 °C 57.4 °F /  14.1 °C 30.17 in /  1021.6 hPa Calm   1.2 mph /  1.9 km/h 94 % 0.00 in /  0 mm
13:51 59.3 °F /  15.2 °C 57.6 °F /  14.2 °C 30.16 in /  1021.2 hPa Calm     94 % 0.00 in /  0 mm
13:56 59.3 °F /  15.2 °C 57.6 °F /  14.2 °C 30.16 in /  1021.2 hPa SSE 0.9 mph /  1.4 km/h 1.2 mph /  1.9 km/h 94 % 0.00 in /  0 mm
14:05 59.3 °F /  15.2 °C 57.9 °F /  14.4 °C 30.16 in /  1021.2 hPa Calm     95 % 0.00 in /  0 mm
14:10 59.4 °F /  15.2 °C 58.0 °F /  14.4 °C 30.16 in /  1021.2 hPa Calm     95 % 0.00 in /  0 mm
14:15 59.6 °F /  15.3 °C 58.2 °F /  14.6 °C 30.16 in /  1021.2 hPa Calm     95 % 0.00 in /  0 mm
14:20 59.6 °F /  15.3 °C 58.2 °F /  14.6 °C 30.16 in /  1021.2 hPa Calm     95 % 0.00 in /  0 mm
14:25 59.6 °F /  15.3 °C 58.2 °F /  14.6 °C 30.16 in /  1021.2 hPa ESE 0.6 mph /  1 km/h 1.2 mph /  1.9 km/h 95 % 0.00 in /  0 mm
14:30 59.6 °F /  15.3 °C 58.2 °F /  14.6 °C 30.16 in /  1021.2 hPa ENE 1.0 mph /  1.6 km/h 2.3 mph /  3.7 km/h 95 % 0.00 in /  0 mm
14:35 59.5 °F /  15.3 °C 58.1 °F /  14.5 °C 30.05 in /  1017.5 hPa ENE 1.7 mph /  2.7 km/h 3.5 mph /  5.6 km/h 95 % 0.00 in /  0 mm
14:40 59.5 °F /  15.3 °C 58.1 °F /  14.5 °C 30.03 in /  1016.8 hPa ENE 1.3 mph /  2.1 km/h 3.0 mph /  4.8 km/h 95 % 0.00 in /  0 mm
14:46 59.4 °F /  15.2 °C 58.0 °F /  14.4 °C 30.16 in /  1021.2 hPa ENE 0.6 mph /  1 km/h 1.2 mph /  1.9 km/h 95 % 0.00 in /  0 mm
14:51 59.4 °F /  15.2 °C 58.0 °F /  14.4 °C 30.02 in /  1016.5 hPa Calm   3.0 mph /  4.8 km/h 95 % 0.00 in /  0 mm
14:56 59.4 °F /  15.2 °C 58.0 °F /  14.4 °C 29.98 in /  1015.1 hPa Calm     95 % 0.00 in /  0 mm
15:01 59.4 °F /  15.2 °C 58.0 °F /  14.4 °C 29.98 in /  1015.1 hPa ENE 0.1 mph /  0.2 km/h   95 % 0.00 in /  0 mm
15:06 59.4 °F /  15.2 °C 58.0 °F /  14.4 °C 29.97 in /  1014.8 hPa ENE 0.1 mph /  0.2 km/h 1.0 mph /  1.6 km/h 95 % 0.00 in /  0 mm
15:11 59.4 °F /  15.2 °C 58.0 °F /  14.4 °C 30.17 in /  1021.6 hPa Calm   2.0 mph /  3.2 km/h 95 % 0.00 in /  0 mm
15:16 59.4 °F /  15.2 °C 58.0 °F /  14.4 °C 30.15 in /  1020.9 hPa Calm   1.0 mph /  1.6 km/h 95 % 0.00 in /  0 mm
15:21 59.4 °F /  15.2 °C 58.0 °F /  14.4 °C 30.15 in /  1020.9 hPa Calm     95 % 0.00 in /  0 mm
15:26 59.4 °F /  15.2 °C 58.0 °F /  14.4 °C 29.95 in /  1014.1 hPa Calm     95 % 0.01 in /  0.25 mm
15:31 59.4 °F /  15.2 °C 58.0 °F /  14.4 °C 29.94 in /  1013.8 hPa Calm     95 % 0.01 in /  0.25 mm
15:36 59.4 °F /  15.2 °C 58.0 °F /  14.4 °C 29.94 in /  1013.8 hPa Calm     95 % 0.01 in /  0.25 mm
15:41 59.5 °F /  15.3 °C 58.4 °F /  14.7 °C 29.93 in /  1013.4 hPa Calm     96 % 0.01 in /  0.25 mm
15:46 59.5 °F /  15.3 °C 58.4 °F /  14.7 °C 29.97 in /  1014.8 hPa Calm   1.2 mph /  1.9 km/h 96 % 0.01 in /  0.25 mm
15:51 59.5 °F /  15.3 °C 58.4 °F /  14.7 °C 30.14 in /  1020.5 hPa Calm     96 % 0.01 in /  0.25 mm
15:56 59.6 °F /  15.3 °C 58.5 °F /  14.7 °C 30.14 in /  1020.5 hPa Calm     96 % 0.01 in /  0.25 mm
16:01 59.5 °F /  15.3 °C 58.4 °F /  14.7 °C 30.14 in /  1020.5 hPa Calm     96 % 0.01 in /  0.25 mm
16:06 59.5 °F /  15.3 °C 58.4 °F /  14.7 °C 29.97 in /  1014.8 hPa Calm     96 % 0.01 in /  0.25 mm
16:11 59.5 °F /  15.3 °C 58.4 °F /  14.7 °C 30.14 in /  1020.5 hPa ENE 0.1 mph /  0.2 km/h 2.0 mph /  3.2 km/h 96 % 0.01 in /  0.25 mm
16:14 59.5 °F /  15.3 °C 58.4 °F /  14.7 °C 30.14 in /  1020.5 hPa SE 0.3 mph /  0.5 km/h 3.5 mph /  5.6 km/h 96 % 0.00 in /  0 mm
16:18 59.5 °F /  15.3 °C 58.4 °F /  14.7 °C 30.14 in /  1020.5 hPa SE 2.3 mph /  3.7 km/h 5.8 mph /  9.3 km/h 96 % 0.00 in /  0 mm
16:23 59.6 °F /  15.3 °C 58.5 °F /  14.7 °C 30.14 in /  1020.5 hPa SSE 2.0 mph /  3.2 km/h 4.6 mph /  7.4 km/h 96 % 0.00 in /  0 mm
16:28 59.8 °F /  15.4 °C 58.7 °F /  14.8 °C 30.13 in /  1020.2 hPa SSE 2.3 mph /  3.7 km/h 9.2 mph /  14.8 km/h 96 % 0.00 in /  0 mm
16:33 59.8 °F /  15.4 °C 58.7 °F /  14.8 °C 30.01 in /  1016.1 hPa SE 1.2 mph /  1.9 km/h 8.1 mph /  13 km/h 96 % 0.00 in /  0 mm
16:38 59.9 °F /  15.5 °C 58.8 °F /  14.9 °C 30.13 in /  1020.2 hPa Calm     96 % 0.00 in /  0 mm
16:43 59.9 °F /  15.5 °C 59.0 °F /  15 °C 30.03 in /  1016.8 hPa East 0.4 mph /  0.6 km/h 2.3 mph /  3.7 km/h 97 % 0.00 in /  0 mm
16:48 60.0 °F /  15.6 °C 59.1 °F /  15.1 °C 30.04 in /  1017.2 hPa SE 0.3 mph /  0.5 km/h 2.3 mph /  3.7 km/h 97 % 0.00 in /  0 mm
16:53 60.0 °F /  15.6 °C 59.1 °F /  15.1 °C 30.03 in /  1016.8 hPa SE 3.0 mph /  4.8 km/h 6.0 mph /  9.7 km/h 97 % 0.00 in /  0 mm
16:58 60.0 °F /  15.6 °C 59.1 °F /  15.1 °C 30.14 in /  1020.5 hPa SSE 2.6 mph /  4.2 km/h 5.8 mph /  9.3 km/h 97 % 0.00 in /  0 mm
17:03 60.0 °F /  15.6 °C 59.1 °F /  15.1 °C 30.13 in /  1020.2 hPa SE 0.7 mph /  1.1 km/h 3.5 mph /  5.6 km/h 97 % 0.00 in /  0 mm
17:08 60.0 °F /  15.6 °C 59.1 °F /  15.1 °C 30.05 in /  1017.5 hPa Calm   1.2 mph /  1.9 km/h 97 % 0.00 in /  0 mm
17:13 60.0 °F /  15.6 °C 59.1 °F /  15.1 °C 30.12 in /  1019.9 hPa SE 0.7 mph /  1.1 km/h 1.2 mph /  1.9 km/h 97 % 0.00 in /  0 mm
17:18 60.0 °F /  15.6 °C 59.1 °F /  15.1 °C 30.12 in /  1019.9 hPa SE 1.6 mph /  2.6 km/h 3.5 mph /  5.6 km/h 97 % 0.00 in /  0 mm
17:23 60.0 °F /  15.6 °C 59.1 °F /  15.1 °C 30.13 in /  1020.2 hPa SE 0.2 mph /  0.3 km/h 3.0 mph /  4.8 km/h 97 % 0.00 in /  0 mm
17:28 60.0 °F /  15.6 °C 59.1 °F /  15.1 °C 29.99 in /  1015.5 hPa SE 0.1 mph /  0.2 km/h 2.3 mph /  3.7 km/h 97 % 0.00 in /  0 mm
17:33 60.0 °F /  15.6 °C 59.1 °F /  15.1 °C 30.12 in /  1019.9 hPa SE 0.2 mph /  0.3 km/h 1.2 mph /  1.9 km/h 97 % 0.00 in /  0 mm
17:38 60.0 °F /  15.6 °C 59.1 °F /  15.1 °C 30.12 in /  1019.9 hPa SE 0.9 mph /  1.4 km/h 3.5 mph /  5.6 km/h 97 % 0.00 in /  0 mm
17:43 59.9 °F /  15.5 °C 59.0 °F /  15 °C 30.11 in /  1019.5 hPa SE 2.4 mph /  3.9 km/h 3.5 mph /  5.6 km/h 97 % 0.00 in /  0 mm
17:48 59.9 °F /  15.5 °C 58.8 °F /  14.9 °C 30.11 in /  1019.5 hPa SSE 2.1 mph /  3.4 km/h 4.6 mph /  7.4 km/h 96 % 0.00 in /  0 mm
17:53 59.8 °F /  15.4 °C 58.7 °F /  14.8 °C 30.10 in /  1019.2 hPa Calm   1.2 mph /  1.9 km/h 96 % 0.00 in /  0 mm
17:59 59.8 °F /  15.4 °C 58.7 °F /  14.8 °C 30.10 in /  1019.2 hPa Calm   1.0 mph /  1.6 km/h 96 % 0.00 in /  0 mm
18:04 59.8 °F /  15.4 °C 58.7 °F /  14.8 °C 30.10 in /  1019.2 hPa Calm     96 % 0.00 in /  0 mm
18:09 59.7 °F /  15.4 °C 58.6 °F /  14.8 °C 30.10 in /  1019.2 hPa Calm     96 % 0.00 in /  0 mm
18:14 59.7 °F /  15.4 °C 58.6 °F /  14.8 °C 30.09 in /  1018.8 hPa Calm   2.3 mph /  3.7 km/h 96 % 0.00 in /  0 mm
18:19 59.7 °F /  15.4 °C 58.6 °F /  14.8 °C 30.10 in /  1019.2 hPa SSE 0.1 mph /  0.2 km/h 2.3 mph /  3.7 km/h 96 % 0.00 in /  0 mm
18:24 59.6 °F /  15.3 °C 58.5 °F /  14.7 °C 30.09 in /  1018.8 hPa Calm   1.2 mph /  1.9 km/h 96 % 0.00 in /  0 mm
18:29 59.6 °F /  15.3 °C 58.7 °F /  14.8 °C 30.09 in /  1018.8 hPa SSE 0.3 mph /  0.5 km/h 1.2 mph /  1.9 km/h 97 % 0.00 in /  0 mm
18:34 59.7 °F /  15.4 °C 58.8 °F /  14.9 °C 30.09 in /  1018.8 hPa SE 1.8 mph /  2.9 km/h 3.5 mph /  5.6 km/h 97 % 0.00 in /  0 mm
18:39 59.7 °F /  15.4 °C 58.8 °F /  14.9 °C 30.09 in /  1018.8 hPa SSE 0.4 mph /  0.6 km/h 2.3 mph /  3.7 km/h 97 % 0.01 in /  0.25 mm
18:44 59.7 °F /  15.4 °C 58.8 °F /  14.9 °C 30.09 in /  1018.8 hPa SE 0.6 mph /  1 km/h 2.3 mph /  3.7 km/h 97 % 0.01 in /  0.25 mm
18:46 59.6 °F /  15.3 °C 58.7 °F /  14.8 °C 30.08 in /  1018.5 hPa SE 2.3 mph /  3.7 km/h 3.5 mph /  5.6 km/h 97 % 0.01 in /  0.25 mm
18:51 59.6 °F /  15.3 °C 58.7 °F /  14.8 °C 30.08 in /  1018.5 hPa SE 1.1 mph /  1.8 km/h 2.3 mph /  3.7 km/h 97 % 0.01 in /  0.25 mm
18:56 59.6 °F /  15.3 °C 58.7 °F /  14.8 °C 30.07 in /  1018.2 hPa SE 2.0 mph /  3.2 km/h 5.0 mph /  8 km/h 97 % 0.01 in /  0.25 mm
19:01 59.6 °F /  15.3 °C 58.7 °F /  14.8 °C 30.07 in /  1018.2 hPa SE 0.8 mph /  1.3 km/h 2.3 mph /  3.7 km/h 97 % 0.01 in /  0.25 mm
19:06 59.6 °F /  15.3 °C 58.7 °F /  14.8 °C 30.06 in /  1017.8 hPa SE 0.6 mph /  1 km/h 3.5 mph /  5.6 km/h 97 % 0.01 in /  0.25 mm
19:12 59.6 °F /  15.3 °C 58.7 °F /  14.8 °C 30.06 in /  1017.8 hPa SE 1.2 mph /  1.9 km/h   97 % 0.01 in /  0.25 mm
19:17 59.6 °F /  15.3 °C 58.7 °F /  14.8 °C 30.08 in /  1018.5 hPa SE 0.7 mph /  1.1 km/h 2.3 mph /  3.7 km/h 97 % 0.01 in /  0.25 mm
19:22 59.6 °F /  15.3 °C 58.7 °F /  14.8 °C 30.06 in /  1017.8 hPa Calm   1.2 mph /  1.9 km/h 97 % 0.01 in /  0.25 mm
19:27 59.6 °F /  15.3 °C 58.7 °F /  14.8 °C 30.06 in /  1017.8 hPa Calm     97 % 0.01 in /  0.25 mm
19:32 59.6 °F /  15.3 °C 58.7 °F /  14.8 °C 30.07 in /  1018.2 hPa Calm     97 % 0.01 in /  0.25 mm
19:37 59.6 °F /  15.3 °C 58.7 °F /  14.8 °C 30.06 in /  1017.8 hPa SE 0.1 mph /  0.2 km/h 1.2 mph /  1.9 km/h 97 % 0.01 in /  0.25 mm
19:42 59.7 °F /  15.4 °C 58.8 °F /  14.9 °C 30.07 in /  1018.2 hPa Calm     97 % 0.00 in /  0 mm
19:47 59.8 °F /  15.4 °C 58.9 °F /  14.9 °C 30.07 in /  1018.2 hPa SE 0.3 mph /  0.5 km/h 2.3 mph /  3.7 km/h 97 % 0.00 in /  0 mm
19:52 59.9 °F /  15.5 °C 59.0 °F /  15 °C 30.07 in /  1018.2 hPa Calm     97 % 0.00 in /  0 mm
19:57 59.9 °F /  15.5 °C 59.0 °F /  15 °C 30.05 in /  1017.5 hPa Calm     97 % 0.00 in /  0 mm
20:02 59.9 °F /  15.5 °C 59.0 °F /  15 °C 30.06 in /  1017.8 hPa Calm     97 % 0.00 in /  0 mm
20:07 60.0 °F /  15.6 °C 59.1 °F /  15.1 °C 30.07 in /  1018.2 hPa Calm     97 % 0.00 in /  0 mm
20:12 60.0 °F /  15.6 °C 59.1 °F /  15.1 °C 30.06 in /  1017.8 hPa Calm     97 % 0.00 in /  0 mm
20:17 60.0 °F /  15.6 °C 59.1 °F /  15.1 °C 30.06 in /  1017.8 hPa Calm     97 % 0.00 in /  0 mm
20:22 60.0 °F /  15.6 °C 59.1 °F /  15.1 °C 30.06 in /  1017.8 hPa Calm     97 % 0.00 in /  0 mm
20:27 60.0 °F /  15.6 °C 59.1 °F /  15.1 °C 30.06 in /  1017.8 hPa Calm     97 % 0.00 in /  0 mm
20:32 60.0 °F /  15.6 °C 59.1 °F /  15.1 °C 30.06 in /  1017.8 hPa Calm     97 % 0.00 in /  0 mm
20:37 60.0 °F /  15.6 °C 59.1 °F /  15.1 °C 30.06 in /  1017.8 hPa Calm     97 % 0.00 in /  0 mm
20:42 60.1 °F /  15.6 °C 59.2 °F /  15.1 °C 30.06 in /  1017.8 hPa Calm     97 % 0.00 in /  0 mm
20:47 60.1 °F /  15.6 °C 59.2 °F /  15.1 °C 30.05 in /  1017.5 hPa Calm     97 % 0.00 in /  0 mm
20:52 60.1 °F /  15.6 °C 59.2 °F /  15.1 °C 30.06 in /  1017.8 hPa Calm     97 % 0.00 in /  0 mm
20:57 60.2 °F /  15.7 °C 59.3 °F /  15.2 °C 30.07 in /  1018.2 hPa Calm     97 % 0.00 in /  0 mm
21:02 60.2 °F /  15.7 °C 59.3 °F /  15.2 °C 30.08 in /  1018.5 hPa Calm     97 % 0.00 in /  0 mm
21:07 60.2 °F /  15.7 °C 59.3 °F /  15.2 °C 30.06 in /  1017.8 hPa Calm     97 % 0.00 in /  0 mm
21:12 60.2 °F /  15.7 °C 59.3 °F /  15.2 °C 30.05 in /  1017.5 hPa Calm     97 % 0.00 in /  0 mm
21:17 60.2 °F /  15.7 °C 59.3 °F /  15.2 °C 30.06 in /  1017.8 hPa Calm     97 % 0.00 in /  0 mm
21:22 60.2 °F /  15.7 °C 59.3 °F /  15.2 °C 30.06 in /  1017.8 hPa Calm     97 % 0.00 in /  0 mm
21:27 60.3 °F /  15.7 °C 59.4 °F /  15.2 °C 30.06 in /  1017.8 hPa Calm     97 % 0.00 in /  0 mm
21:32 60.3 °F /  15.7 °C 59.4 °F /  15.2 °C 30.05 in /  1017.5 hPa Calm     97 % 0.00 in /  0 mm
21:37 60.3 °F /  15.7 °C 59.4 °F /  15.2 °C 30.05 in /  1017.5 hPa Calm     97 % 0.00 in /  0 mm
21:42 60.3 °F /  15.7 °C 59.4 °F /  15.2 °C 30.04 in /  1017.2 hPa Calm     97 % 0.00 in /  0 mm
21:47 60.3 °F /  15.7 °C 59.4 °F /  15.2 °C 30.05 in /  1017.5 hPa Calm     97 % 0.01 in /  0.25 mm
21:53 60.2 °F /  15.7 °C 59.3 °F /  15.2 °C 30.04 in /  1017.2 hPa Calm     97 % 0.01 in /  0.25 mm
21:58 60.2 °F /  15.7 °C 59.3 °F /  15.2 °C 30.04 in /  1017.2 hPa Calm     97 % 0.01 in /  0.25 mm
22:03 60.2 °F /  15.7 °C 59.3 °F /  15.2 °C 30.04 in /  1017.2 hPa Calm     97 % 0.01 in /  0.25 mm
22:08 60.2 °F /  15.7 °C 59.3 °F /  15.2 °C 30.05 in /  1017.5 hPa Calm     97 % 0.01 in /  0.25 mm
22:13 60.2 °F /  15.7 °C 59.3 °F /  15.2 °C 30.04 in /  1017.2 hPa Calm     97 % 0.01 in /  0.25 mm
22:19 60.2 °F /  15.7 °C 59.3 °F /  15.2 °C 30.04 in /  1017.2 hPa Calm     97 % 0.01 in /  0.25 mm
22:22 60.1 °F /  15.6 °C 59.2 °F /  15.1 °C 30.04 in /  1017.2 hPa Calm     97 % 0.01 in /  0.25 mm
22:23 60.1 °F /  15.6 °C 59.2 °F /  15.1 °C 30.05 in /  1017.5 hPa Calm     97 % 0.01 in /  0.25 mm
22:24 60.1 °F /  15.6 °C 59.2 °F /  15.1 °C 29.81 in /  1009.4 hPa Calm     97 % 0.01 in /  0.25 mm
22:28 60.1 °F /  15.6 °C 59.2 °F /  15.1 °C 29.79 in /  1008.7 hPa Calm     97 % 0.01 in /  0.25 mm
22:34 60.0 °F /  15.6 °C 59.1 °F /  15.1 °C 30.04 in /  1017.2 hPa Calm     97 % 0.01 in /  0.25 mm
22:39 60.0 °F /  15.6 °C 59.1 °F /  15.1 °C 30.05 in /  1017.5 hPa Calm     97 % 0.01 in /  0.25 mm
22:44 60.0 °F /  15.6 °C 59.1 °F /  15.1 °C 30.03 in /  1016.8 hPa Calm     97 % 0.01 in /  0.25 mm
22:49 59.9 °F /  15.5 °C 59.0 °F /  15 °C 30.03 in /  1016.8 hPa Calm     97 % 0.00 in /  0 mm
22:54 59.8 °F /  15.4 °C 58.9 °F /  14.9 °C 30.02 in /  1016.5 hPa Calm   1.2 mph /  1.9 km/h 97 % 0.00 in /  0 mm
22:59 59.8 °F /  15.4 °C 58.9 °F /  14.9 °C 30.02 in /  1016.5 hPa SE 0.1 mph /  0.2 km/h 1.2 mph /  1.9 km/h 97 % 0.00 in /  0 mm
23:04 59.8 °F /  15.4 °C 58.9 °F /  14.9 °C 30.04 in /  1017.2 hPa SE 0.6 mph /  1 km/h 2.3 mph /  3.7 km/h 97 % 0.00 in /  0 mm
23:09 59.8 °F /  15.4 °C 58.9 °F /  14.9 °C 30.02 in /  1016.5 hPa SSW 0.2 mph /  0.3 km/h 1.2 mph /  1.9 km/h 97 % 0.00 in /  0 mm
23:14 59.9 °F /  15.5 °C 59.0 °F /  15 °C 30.03 in /  1016.8 hPa WSW 1.5 mph /  2.4 km/h 4.6 mph /  7.4 km/h 97 % 0.00 in /  0 mm
23:19 60.0 °F /  15.6 °C 59.1 °F /  15.1 °C 30.02 in /  1016.5 hPa Calm   1.2 mph /  1.9 km/h 97 % 0.00 in /  0 mm
23:24 60.1 °F /  15.6 °C 59.2 °F /  15.1 °C 30.02 in /  1016.5 hPa Calm   1.2 mph /  1.9 km/h 97 % 0.00 in /  0 mm
23:29 60.2 °F /  15.7 °C 59.3 °F /  15.2 °C 30.02 in /  1016.5 hPa Calm     97 % 0.00 in /  0 mm
23:34 60.2 °F /  15.7 °C 59.3 °F /  15.2 °C 30.03 in /  1016.8 hPa WSW 0.1 mph /  0.2 km/h 2.3 mph /  3.7 km/h 97 % 0.00 in /  0 mm
23:39 60.3 °F /  15.7 °C 59.4 °F /  15.2 °C 30.02 in /  1016.5 hPa Calm     97 % 0.00 in /  0 mm
23:44 60.3 °F /  15.7 °C 59.4 °F /  15.2 °C 30.01 in /  1016.1 hPa Calm     97 % 0.00 in /  0 mm
23:50 60.4 °F /  15.8 °C 59.5 °F /  15.3 °C 30.02 in /  1016.5 hPa SW 0.2 mph /  0.3 km/h 1.2 mph /  1.9 km/h 97 % 0.00 in /  0 mm
23:55 60.4 °F /  15.8 °C 59.5 °F /  15.3 °C 30.01 in /  1016.1 hPa Calm   1.2 mph /  1.9 km/h 97 % 0.00 in /  0 mm
23:57 60.4 °F /  15.8 °C 59.5 °F /  15.3 °C 30.01 in /  1016.1 hPa SW 0.8 mph /  1.3 km/h 2.3 mph /  3.7 km/h 97 % 0.00 in /  0 mm
Crab Meadow Weather
Compliments of Weather Underground - 3 mb

Script developed by  Jim McMurry - jmcmurry@mwt.net Adapted for the template by  Wim van der Kuil - Leuven-Template.eu

Extremes: The most widespread U.S. cold wave was in February of 1899. It was so cold that the Mississippi River froze over its entire length, with ice as thick as two inches even in New Orleans.